TimeHST,TemperatureF,Dew PointF,Humidity,Sea Level PressureIn,VisibilityMPH,Wind Direction,Wind SpeedMPH,Gust SpeedMPH,PrecipitationIn,Events,Conditions,WindDirDegrees,DateUTC
12:20 AM,75.2,66.2,73,30.09,10.0,East,12.7,-,N/A,,Partly Cloudy,90,2012-11-20 10:20:00
12:53 AM,75.9,66.9,74,30.08,10.0,East,13.8,-,N/A,,Scattered Clouds,80,2012-11-20 10:53:00
1:53 AM,75.9,66.0,71,30.07,10.0,East,11.5,-,N/A,,Partly Cloudy,80,2012-11-20 11:53:00
2:53 AM,75.9,66.0,71,30.05,10.0,East,15.0,-,N/A,,Partly Cloudy,80,2012-11-20 12:53:00
3:53 AM,75.0,66.0,73,30.05,10.0,ENE,11.5,-,N/A,,Clear,70,2012-11-20 13:53:00
4:53 AM,75.0,64.9,71,30.04,10.0,East,11.5,-,N/A,,Partly Cloudy,80,2012-11-20 14:53:00
5:53 AM,75.9,66.0,71,30.04,10.0,East,15.0,-,0.00,Rain,Light Rain,90,2012-11-20 15:53:00
6:53 AM,75.9,66.0,71,30.05,10.0,ENE,16.1,-,0.00,,Mostly Cloudy,70,2012-11-20 16:53:00
7:53 AM,75.9,66.0,71,30.07,10.0,ENE,15.0,-,N/A,,Scattered Clouds,70,2012-11-20 17:53:00
8:53 AM,77.0,66.0,69,30.09,10.0,ENE,15.0,-,N/A,,Mostly Cloudy,70,2012-11-20 18:53:00
9:53 AM,78.1,66.0,66,30.09,10.0,ENE,16.1,-,N/A,,Overcast,70,2012-11-20 19:53:00
10:53 AM,78.1,66.0,66,30.08,10.0,East,15.0,-,N/A,,Mostly Cloudy,80,2012-11-20 20:53:00
11:53 AM,79.0,66.0,64,30.06,10.0,East,16.1,-,N/A,,Scattered Clouds,80,2012-11-20 21:53:00
12:53 PM,79.0,64.9,62,30.03,10.0,East,13.8,-,N/A,,Mostly Cloudy,90,2012-11-20 22:53:00
1:53 PM,80.1,66.0,62,30.00,10.0,East,13.8,-,N/A,,Mostly Cloudy,90,2012-11-20 23:53:00
2:53 PM,78.1,66.0,66,29.99,10.0,East,15.0,-,N/A,,Mostly Cloudy,90,2012-11-21 00:53:00
3:53 PM,79.0,64.9,62,29.98,10.0,East,13.8,-,N/A,,Partly Cloudy,90,2012-11-21 01:53:00
4:53 PM,77.0,64.9,66,29.99,10.0,East,13.8,-,N/A,,Mostly Cloudy,100,2012-11-21 02:53:00
5:53 PM,75.9,64.9,69,30.00,10.0,East,16.1,-,N/A,,Clear,90,2012-11-21 03:53:00
6:53 PM,75.9,64.9,69,30.01,10.0,East,15.0,-,N/A,,Partly Cloudy,90,2012-11-21 04:53:00
7:53 PM,75.9,64.0,67,30.03,10.0,East,16.1,-,N/A,,Clear,90,2012-11-21 05:53:00
8:53 PM,75.0,64.0,69,30.04,10.0,East,12.7,-,N/A,,Clear,90,2012-11-21 06:53:00
9:53 PM,75.0,64.0,69,30.04,10.0,ENE,11.5,-,N/A,,Mostly Cloudy,70,2012-11-21 07:53:00
10:43 PM,75.2,64.4,69,30.04,10.0,ENE,10.4,-,N/A,,Overcast,70,2012-11-21 08:43:00
10:51 PM,75.2,62.6,65,30.04,10.0,ENE,11.5,-,N/A,,Overcast,60,2012-11-21 08:51:00
10:53 PM,75.9,63.0,64,30.03,10.0,ENE,12.7,-,N/A,,Overcast,70,2012-11-21 08:53:00
11:53 PM,75.0,63.0,66,30.02,10.0,ENE,10.4,-,N/A,,Scattered Clouds,70,2012-11-21 09:53:00